GW5816 Weather Reports


time (UTC)temp
F
wind
direction
speed
knots
gust
knots
rain 1hr
in
rain 24hr
in
rain mn
in
humidity
%
barometer
mb
20260505075644 49 246 0.0 0.0 0.00 0.00 0.00 91 1021.0
20260505075144 50 154 0.0 0.0 0.00 0.00 0.00 91 1021.0
20260505074643 50 322 0.0 0.9 0.00 0.00 0.00 91 1021.0
20260505074143 50 322 0.0 0.0 0.00 0.00 0.00 91 1021.0
20260505073643 50 326 0.0 0.0 0.00 0.00 0.00 91 1021.0
20260505073143 50 205 0.0 0.0 0.00 0.00 0.00 90 1021.0
20260505072643 50 256 0.0 0.9 0.00 0.00 0.00 90 1021.0
20260505072141 50 352 0.0 0.9 0.00 0.00 0.00 90 1021.0
20260505071642 50 154 0.0 1.7 0.00 0.00 0.00 90 1021.0
20260505071143 50 235 0.0 0.0 0.00 0.00 0.00 89 1021.0
20260505070645 50 205 0.0 0.0 0.00 0.00 0.00 89 1021.0
20260505070143 51 306 0.9 0.9 0.00 0.00 0.00 89 1021.0
20260505065642 51 284 0.0 0.9 0.00 0.00 0.00 89 1021.0
20260505065142 51 249 0.0 1.7 0.00 0.00 0.00 88 1021.0
20260505064643 51 309 0.0 0.0 0.00 0.00 0.00 88 1021.0
20260505064144 51 309 0.0 1.7 0.00 0.00 0.00 88 1021.0
20260505063643 51 217 0.0 0.0 0.00 0.00 0.00 87 1021.0
20260505063144 51 217 0.0 0.0 0.00 0.00 0.00 87 1021.0
20260505062645 51 297 0.0 0.0 0.00 0.00 0.00 87 1021.0
20260505062143 51 298 0.0 0.9 0.00 0.00 0.00 88 1021.0
20260505061644 51 315 0.0 0.0 0.00 0.00 0.00 87 1021.0
20260505061144 51 242 0.0 0.0 0.00 0.00 0.00 87 1021.0
20260505060643 52 309 0.0 0.9 0.00 0.00 0.00 87 1021.0
20260505060144 52 230 0.0 0.0 0.00 0.00 0.00 87 1021.0
20260505055642 52 230 0.0 0.9 0.00 0.00 0.00 86 1021.0
20260505055143 52 230 0.0 0.0 0.00 0.00 0.00 86 1021.0
20260505054642 52 325 0.0 0.0 0.00 0.00 0.00 86 1021.0
20260505054141 52 336 0.0 0.9 0.00 0.00 0.00 86 1021.0
20260505053642 52 205 0.0 0.0 0.00 0.00 0.00 85 1021.0
20260505053142 52 297 0.0 0.0 0.00 0.00 0.00 84 1021.0
20260505052642 52 224 0.0 0.0 0.00 0.00 0.00 84 1021.0
20260505052141 53 224 0.0 0.0 0.00 0.00 0.00 83 1021.0
20260505051642 53 224 0.0 0.0 0.00 0.00 0.00 84 1021.0
20260505051142 53 249 0.0 0.0 0.00 0.00 0.00 83 1021.0
20260505050641 53 269 0.0 0.0 0.00 0.00 0.00 83 1021.0
20260505050142 53 310 0.0 0.0 0.00 0.00 0.00 82 1021.0
20260505041641 55 224 0.0 0.0 0.00 0.00 0.00 79 1021.0
20260505041143 55 224 0.0 0.9 0.00 0.00 0.00 79 1021.0
20260505040641 55 294 0.9 0.9 0.00 0.00 0.00 79 1021.0
20260505040144 55 256 0.0 0.0 0.00 0.00 0.00 78 1021.0
20260505035641 55 256 0.0 0.9 0.00 0.00 0.00 78 1021.0
20260505035142 56 224 0.0 0.9 0.00 0.00 0.00 77 1021.0
20260505034641 56 269 0.0 0.0 0.00 0.00 0.00 77 1021.0
20260505034144 56 246 0.0 0.0 0.00 0.00 0.00 77 1021.0
20260505033641 56 315 0.0 0.0 0.00 0.00 0.00 76 1021.0
20260505033142 56 224 0.0 0.0 0.00 0.00 0.00 75 1021.0
20260505032642 57 310 0.0 0.0 0.00 0.00 0.00 75 1021.0
20260505032142 57 315 0.0 0.0 0.00 0.00 0.00 75 1021.0
20260505031641 57 315 0.0 1.7 0.00 0.00 0.00 74 1021.0
20260505031143 57 312 0.0 0.9 0.00 0.00 0.00 74 1021.0
20260505030641 57 290 0.0 0.0 0.00 0.00 0.00 73 1021.0
20260505030142 57 269 0.0 0.9 0.00 0.00 0.00 73 1021.0
20260505025641 58 217 0.0 0.0 0.00 0.00 0.00 73 1021.0
20260505025141 58 242 0.0 0.0 0.00 0.00 0.00 72 1021.0
20260505024642 58 256 0.0 0.0 0.00 0.00 0.00 72 1021.0
20260505024142 58 255 0.0 0.9 0.00 0.00 0.00 71 1021.0
20260505023642 59 242 0.0 0.0 0.00 0.00 0.00 71 1021.0
20260505023142 59 315 0.0 0.9 0.00 0.00 0.00 71 1021.0
20260505022643 59 277 0.0 0.0 0.00 0.00 0.00 70 1021.0
20260505022141 59 217 0.0 0.9 0.00 0.00 0.00 69 1021.0
20260505021641 60 309 0.0 0.0 0.00 0.00 0.00 69 1021.0
20260505021141 60 224 0.0 0.9 0.00 0.00 0.00 68 1021.0
20260505020642 60 290 0.0 0.9 0.00 0.00 0.00 68 1021.0
20260505020141 60 297 0.0 0.0 0.00 0.00 0.00 67 1021.0
20260505015641 61 254 0.0 1.7 0.00 0.00 0.00 66 1020.0
20260505015142 61 315 0.0 0.9 0.00 0.00 0.00 65 1020.0
20260505014643 61 327 1.7 1.7 0.00 0.00 0.00 65 1020.0
20260505014141 62 269 0.0 1.7 0.00 0.00 0.00 64 1020.0
20260505013644 62 309 0.0 0.9 0.00 0.00 0.00 63 1020.0
20260505013141 63 224 0.0 0.9 0.00 0.00 0.00 62 1020.0
20260505012642 63 282 0.0 0.0 0.00 0.00 0.00 61 1020.0
20260505012141 63 269 0.0 0.9 0.00 0.00 0.00 60 1020.0
20260505011643 64 257 0.0 0.9 0.00 0.00 0.00 59 1020.0
20260505011144 64 255 0.0 1.7 0.00 0.00 0.00 59 1020.0
20260505010642 65 321 0.0 1.7 0.00 0.00 0.00 57 1020.0
20260505010141 65 307 1.7 1.7 0.00 0.00 0.00 56 1020.0
20260505005641 66 269 0.0 1.7 0.00 0.00 0.00 55 1020.0
20260505005142 66 283 0.0 1.7 0.00 0.00 0.00 54 1020.0
20260505004642 67 258 0.0 0.9 0.00 0.00 0.00 51 1020.0
20260505004141 68 269 0.0 0.9 0.00 0.00 0.00 50 1020.0
20260505003643 68 271 0.0 1.7 0.00 0.00 0.00 49 1020.0
20260505003144 69 269 0.0 0.9 0.00 0.00 0.00 48 1020.0
20260505002642 69 269 0.0 0.9 0.00 0.00 0.00 47 1020.0
20260505002142 70 269 0.0 0.0 0.00 0.00 0.00 45 1020.0
20260505001644 71 293 0.0 0.9 0.00 0.00 0.00 43 1020.0
20260505001141 71 269 0.0 0.9 0.00 0.00 0.00 42 1020.0
20260505000642 72 266 1.7 1.7 0.00 0.00 0.00 41 1020.0
20260505000143 73 216 0.0 0.9 0.00 0.00 0.00 39 1020.0
20260504235645 73 267 1.7 2.6 0.00 0.00 0.00 39 1020.0
20260504235142 73 269 0.0 2.6 0.00 0.00 0.00 38 1020.0
20260504234642 74 274 1.7 2.6 0.00 0.00 0.00 39 1020.0
20260504234141 74 291 0.9 2.6 0.00 0.00 0.00 38 1020.0
20260504233642 75 290 0.9 1.7 0.00 0.00 0.00 36 1020.0
20260504233143 75 269 0.0 2.6 0.00 0.00 0.00 36 1020.0
20260504232641 75 160 0.0 2.6 0.00 0.00 0.00 35 1020.0
20260504232143 76 133 2.6 6.1 0.00 0.00 0.00 35 1020.0
20260504231646 76 306 2.6 3.5 0.00 0.00 0.00 37 1020.0
20260504231144 76 133 0.0 7.8 0.00 0.00 0.00 36 1020.0
20260504230641 78 308 1.7 5.2 0.00 0.00 0.00 34 1020.0
20260504230143 78 120 1.7 2.6 0.00 0.00 0.00 34 1020.0
20260504225642 78 284 1.7 5.2 0.00 0.00 0.00 33 1020.0
20260504225142 80 237 1.7 3.5 0.00 0.00 0.00 31 1020.0
20260504224642 80 188 0.9 2.6 0.00 0.00 0.00 32 1020.0
20260504224142 77 283 1.7 5.2 0.00 0.00 0.00 34 1020.0
20260504223641 77 276 1.7 5.2 0.00 0.00 0.00 33 1020.0
20260504223142 77 286 1.7 3.5 0.00 0.00 0.00 33 1020.0
20260504222643 78 284 1.7 2.6 0.00 0.00 0.00 32 1020.0
20260504222145 78 284 0.9 3.5 0.00 0.00 0.00 33 1020.0
20260504221642 79 104 1.7 3.5 0.00 0.00 0.00 31 1020.0
20260504221146 80 169 1.7 5.2 0.00 0.00 0.00 31 1020.0
20260504220641 80 267 1.7 3.5 0.00 0.00 0.00 31 1021.0
20260504220142 81 277 3.5 3.5 0.00 0.00 0.00 31 1020.0
20260504215643 79 107 0.0 4.3 0.00 0.00 0.00 32 1020.0
20260504215143 78 190 1.7 2.6 0.00 0.00 0.00 33 1020.0
20260504214644 80 274 2.6 4.3 0.00 0.00 0.00 32 1020.0
20260504214142 79 225 1.7 2.6 0.00 0.00 0.00 31 1020.0
20260504213641 78 287 4.3 4.3 0.00 0.00 0.00 32 1020.0
20260504213144 79 291 3.5 6.1 0.00 0.00 0.00 33 1020.0
20260504212643 79 296 3.5 4.3 0.00 0.00 0.00 33 1020.0
20260504212143 77 249 1.7 2.6 0.00 0.00 0.00 32 1020.0
20260504211643 77 289 3.5 3.5 0.00 0.00 0.00 34 1020.0
20260504211144 79 293 2.6 5.2 0.00 0.00 0.00 32 1020.0
20260504210647 80 268 0.0 4.3 0.00 0.00 0.00 31 1021.0
20260504210146 81 262 2.6 2.6 0.00 0.00 0.00 30 1021.0
20260504205642 78 269 0.9 3.5 0.00 0.00 0.00 32 1021.0
20260504205144 78 274 2.6 4.3 0.00 0.00 0.00 31 1021.0
20260504204642 80 276 0.9 4.3 0.00 0.00 0.00 32 1021.0
20260504204141 79 268 1.7 7.0 0.00 0.00 0.00 33 1021.0
20260504203641 80 70 1.7 2.6 0.00 0.00 0.00 29 1021.0
20260504203143 78 96 2.6 5.2 0.00 0.00 0.00 30 1021.0
20260504202644 79 269 1.7 2.6 0.00 0.00 0.00 32 1021.0
20260504202143 79 268 2.6 4.3 0.00 0.00 0.00 32 1021.0
20260504201644 79 290 0.0 2.6 0.00 0.00 0.00 30 1021.0
20260504201142 80 243 1.7 3.5 0.00 0.00 0.00 31 1021.0
20260504200645 80 264 0.9 2.6 0.00 0.00 0.00 31 1021.0
20260504200143 79 124 2.6 5.2 0.00 0.00 0.00 31 1021.0
20260504195643 79 233 1.7 2.6 0.00 0.00 0.00 32 1021.0
20260504195144 78 112 2.6 3.5 0.00 0.00 0.00 33 1021.0
20260504194643 80 266 2.6 3.5 0.00 0.00 0.00 33 1022.0
20260504194141 80 151 0.0 2.6 0.00 0.00 0.00 33 1022.0
20260504193643 78 287 3.5 4.3 0.00 0.00 0.00 35 1022.0
20260504193143 77 297 3.5 4.3 0.00 0.00 0.00 36 1022.0
20260504192643 77 352 0.9 2.6 0.00 0.00 0.00 34 1022.0
20260504192142 78 91 1.7 2.6 0.00 0.00 0.00 33 1022.0
20260504191642 80 105 1.7 3.5 0.00 0.00 0.00 31 1022.0
20260504191143 78 144 1.7 2.6 0.00 0.00 0.00 32 1022.0
20260504190642 77 282 0.9 4.3 0.00 0.00 0.00 35 1022.0
20260504190145 78 208 2.6 3.5 0.00 0.00 0.00 32 1022.0
20260504185643 78 276 2.6 3.5 0.00 0.00 0.00 33 1023.0
20260504185143 77 114 0.0 3.5 0.00 0.00 0.00 32 1023.0
20260504184644 79 104 1.7 4.3 0.00 0.00 0.00 32 1023.0
20260504184143 78 264 1.7 2.6 0.00 0.00 0.00 33 1023.0
20260504183643 77 193 0.0 4.3 0.00 0.00 0.00 35 1023.0
20260504183144 79 118 2.6 4.3 0.00 0.00 0.00 34 1023.0
20260504182643 78 100 2.6 7.8 0.00 0.00 0.00 34 1023.0
20260504182143 77 288 1.7 2.6 0.00 0.00 0.00 37 1023.0
20260504181644 77 302 3.5 5.2 0.00 0.00 0.00 37 1023.0
20260504181144 77 278 2.6 3.5 0.00 0.00 0.00 34 1023.0
20260504180644 76 274 0.9 2.6 0.00 0.00 0.00 35 1023.0
20260504180144 75 295 4.3 4.3 0.00 0.00 0.00 36 1024.0
20260504175644 75 279 2.6 3.5 0.00 0.00 0.00 36 1024.0
20260504175144 76 289 2.6 3.5 0.00 0.00 0.00 34 1024.0
20260504174644 75 263 3.5 6.1 0.00 0.00 0.00 37 1024.0
20260504174146 76 249 2.6 4.3 0.00 0.00 0.00 38 1024.0
20260504173643 77 142 0.0 3.5 0.00 0.00 0.00 35 1024.0
20260504173143 75 288 2.6 7.0 0.00 0.00 0.00 39 1023.0
20260504172642 75 119 2.6 6.1 0.00 0.00 0.00 36 1024.0
20260504172143 76 242 0.9 3.5 0.00 0.00 0.00 38 1024.0
20260504171644 75 254 1.7 4.3 0.00 0.00 0.00 39 1024.0
20260504171144 73 275 0.9 3.5 0.00 0.00 0.00 41 1024.0
20260504170642 74 288 3.5 5.2 0.00 0.00 0.00 37 1024.0
20260504170144 75 164 0.0 3.5 0.00 0.00 0.00 39 1024.0
20260504160142 72 93 0.0 2.6 0.00 0.00 0.00 41 1025.0
20260504151145 70 112 2.6 4.3 0.00 0.00 0.00 42 1026.0
20260504150644 68 150 0.9 3.5 0.00 0.00 0.00 45 1026.0
20260504150144 68 278 0.0 4.3 0.00 0.00 0.00 44 1026.0
20260504141146 64 289 0.0 6.1 0.00 0.00 0.00 47 1026.0
20260504140646 65 84 0.9 4.3 0.00 0.00 0.00 47 1026.0
20260504140147 64 93 0.9 1.7 0.00 0.00 0.00 48 1026.0
20260504130644 57 276 1.7 2.6 0.00 0.00 0.00 73 1026.0
20260504130144 54 174 0.0 0.0 0.00 0.00 0.00 83 1026.0
20260504120143 44 290 0.0 0.9 0.00 0.00 0.00 99 1026.0
20260504110642 42 246 0.0 0.0 0.00 0.00 0.00 98 1025.0
20260504110145 42 336 0.0 0.0 0.00 0.00 0.00 98 1025.0
20260504100143 42 326 0.0 0.9 0.00 0.00 0.00 98 1025.0
20260504081644 43 230 0.0 0.0 0.00 0.00 0.00 95 1024.0
20260504081145 44 230 0.0 0.0 0.00 0.00 0.00 95 1024.0
20260504080644 44 230 0.0 0.0 0.00 0.00 0.00 95 1024.0
20260504080141 44 229 0.0 0.0 0.00 0.00 0.00 94 1024.0